Regional Weather Roundup
Issued by NWS

Home | Current Version | Previous Version | Graphics & Text | Print | Product List | Glossary On
Versions: 1 2 3 4 5 6 7 8 9 10 11 12 13 14 15 16 17 18 19 20 21 22 23 24 25 26 27 28 29 30 31 32 33 34 35 36 37 38 39 40 41 42 43 44 45 46 47 48 49 50
750
ASUS43 KLMK 132102
RWRKY
KENTUCKY REGIONAL WEATHER ROUNDUP
NATIONAL WEATHER SERVICE LOUISVILLE KY
400 PM EST SAT FEB 13 2016

NOTE "FAIR" INDICATES FEW OR NO CLOUDS BELOW 12,000 FEET
WITH NO SIGNIFICANT WEATHER AND/OR OBSTRUCTIONS TO VISIBILITY.

KYZ001>023-026-027-061>063-070>075-132200-
WESTERN AND SOUTH CENTRAL KENTUCKY

CITY           SKY/WX    TMP DP  RH WIND       PRES   REMARKS
PADUCAH        MOSUNNY   28   2  32 N6        30.54S WCI  22
HENDERSON      SUNNY     25   3  39 N3        30.56S
OWENSBORO      SUNNY     26   1  34 NW8       30.55F WCI  18
HOPKINSVILLE   SUNNY     28   3  34 N5        30.51F WCI  23
BOWLING GREEN  SUNNY     30   1  29 NE7       30.52S WCI  23
GLASGOW        NOT AVBL
$$

KYZ024-025-028>034-038-045-046-053-132200-
NORTH CENTRAL KENTUCKY

CITY           SKY/WX    TMP DP  RH WIND       PRES   REMARKS
LOUISVILLE/SDF MOSUNNY   26  -3  28 N8        30.51F WCI  18
LOUISVILLE/LOU SUNNY     25   1  35 VRB5      30.52F WCI  19
FORT KNOX      MOSUNNY   25  -2  31 VRB6      30.48R WCI  18
$$

KYZ035>037-039>044-047>052-055>060-089>105-132200-
NORTHEAST KENTUCKY

CITY           SKY/WX    TMP DP  RH WIND       PRES   REMARKS
LEXINGTON      SUNNY     24   2  38 N7        30.47S WCI  16
COVINGTON      MOSUNNY   19   0  43 NW7       30.49F WCI  10
FRANKFORT      SUNNY     24  -2  32 W9        30.48F WCI  14
$$

KYZ054-064>069-076>088-106>120-132200-
SOUTHEAST KENTUCKY

CITY           SKY/WX    TMP DP  RH WIND       PRES   REMARKS
JACKSON        MOSUNNY   22   4  46 VRB5      30.42S WCI  16
LONDON         SUNNY     25   3  38 NE6       30.42S WCI  18
SOMERSET       NOT AVBL
MIDDLESBORO    NOT AVBL
MONTICELLO     CLEAR     28   9  44 N9G16     30.48S WCI  19
$$





USA.gov is the U.S. government's official web portal to all federal, state and local government web resources and services.